User: anonymous   Login
Location: Churchill Northern Studies Centre
(58.7378°N, 93.8201°W)
Time: 14:42:49
(UTC-06:00)
Language:

N. Korean satellite - Orbit

View from above orbital plane
View from above orbital plane
View from above satellite
View from above satellite

Ground track
Ground track

The orbit data is extracted from the following two-line orbital elements,

1 39026U 12072A   17344.95152803 +.00001281 +00000-0 +51359-4 0  9993
2 39026 097.2163 356.7510 0038129 271.0201 088.6670 15.26174931276888
Epoch (UTC): 10 December 2017 22:50:12
Eccentricity: 0.0038129
inclination: 97.2163°
perigee height: 461 km
apogee height: 513 km
right ascension of ascending node: 356.7510°
argument of perigee: 271.0201°
revolutions per day: 15.26174931
mean anomaly at epoch: 88.6670°
orbit number at epoch: 27688

The dashed part of the orbit path shows where the satellite is in the earth's shadow,  

DLR